When you browse on this site, cookies collect data to enhance your experience and personalize the content and advertising you see.
Visit our Privacy Policy to learn more. By continuing to use the site, you agree to this use of cookies and data.
  • în România
  • Lista ţărilor
  • Pe 7 zile
  • Temperatura apei
  • Hartă satelitară
  • Meteo pe hartă
  • Widget-uri
  • user-avatar
    Intrare

    Meteo pe oră la Leicester

    Astăzi, 24 Martie, Duminică

    Timp Temperatura Precipitaţii Vânt Presiune Umiditate
    00:00 +6°C° 0 mm 0 m/s 768 mmHg 69%
    01:00 +6°C° 0 mm 0 m/s 768 mmHg 71%
    02:00 +7°C° 0 mm 1 m/s 767 mmHg 72%
    03:00 +6°C° 0 mm 1 m/s 767 mmHg 73%
    04:00 +5°C° 0 mm 1 m/s 767 mmHg 75%
    05:00 +5°C° 0 mm 1 m/s 767 mmHg 77%
    06:00 +3°C° 0 mm 2 m/s 767 mmHg 79%
    07:00 +4°C° 0 mm 2 m/s 767 mmHg 75%
    08:00 +5°C° 0 mm 3 m/s 767 mmHg 70%
    09:00 +7°C° 0 mm 3 m/s 767 mmHg 66%
    10:00 +7°C° 0 mm 4 m/s 766 mmHg 64%
    11:00 +8°C° 0 mm 4 m/s 766 mmHg 62%
    12:00 +9°C° 0 mm 5 m/s 766 mmHg 61%
    13:00 +9°C° 0 mm 5 m/s 766 mmHg 60%
    14:00 +9°C° 0 mm 6 m/s 766 mmHg 60%
    15:00 +9°C° 0 mm 6 m/s 765 mmHg 59%
    16:00 +8°C° 0 mm 6 m/s 765 mmHg 64%
    17:00 +7°C° 0 mm 5 m/s 765 mmHg 68%
    18:00 +6°C° 0 mm 4 m/s 765 mmHg 72%
    19:00 +6°C° 0 mm 4 m/s 765 mmHg 75%
    20:00 +5°C° 0 mm 4 m/s 765 mmHg 77%
    21:00 +4°C° 0 mm 4 m/s 765 mmHg 80%
    22:00 +4°C° 0 mm 4 m/s 765 mmHg 82%
    23:00 +4°C° 0 mm 4 m/s 765 mmHg 85%

    Mâine, 25 Martie, Luni

    Timp Temperatura Precipitaţii Vânt Presiune Umiditate
    00:00 +4°C° 0 mm 4 m/s 766 mmHg 87%
    01:00 +3°C° 0 mm 4 m/s 765 mmHg 85%
    02:00 +3°C° 0 mm 4 m/s 765 mmHg 82%
    03:00 +1°C° 0 mm 4 m/s 765 mmHg 80%
    04:00 +1°C° 0 mm 4 m/s 766 mmHg 79%
    05:00 +1°C° 0 mm 4 m/s 766 mmHg 78%
    06:00 +1°C° 0 mm 4 m/s 766 mmHg 77%
    07:00 +2°C° 0 mm 5 m/s 767 mmHg 73%
    08:00 +3°C° 0 mm 5 m/s 767 mmHg 68%
    09:00 +4°C° 0 mm 6 m/s 768 mmHg 63%
    10:00 +6°C° 0 mm 5 m/s 768 mmHg 61%
    11:00 +7°C° 0 mm 4 m/s 768 mmHg 59%
    12:00 +8°C° 0 mm 4 m/s 768 mmHg 57%
    13:00 +10°C° 0 mm 3 m/s 768 mmHg 55%
    14:00 +10°C° 0 mm 3 m/s 768 mmHg 53%
    15:00 +12°C° 0 mm 2 m/s 769 mmHg 51%
    16:00 +9°C° 0 mm 2 m/s 769 mmHg 57%
    17:00 +8°C° 0 mm 2 m/s 769 mmHg 62%
    18:00 +7°C° 0 mm 2 m/s 769 mmHg 67%
    19:00 +6°C° 0 mm 2 m/s 769 mmHg 71%
    20:00 +5°C° 0 mm 2 m/s 770 mmHg 76%
    21:00 +4°C° 0 mm 2 m/s 770 mmHg 80%
    22:00 +4°C° 0 mm 2 m/s 770 mmHg 82%
    23:00 +3°C° 0 mm 2 m/s 770 mmHg 84%

    Poimâine, 26 Martie, Marţi

    Timp Temperatura Precipitaţii Vânt Presiune Umiditate
    00:00 +3°C° 0 mm 2 m/s 770 mmHg 86%
    01:00 +3°C° 0 mm 2 m/s 770 mmHg 88%
    02:00 +2°C° 0 mm 2 m/s 770 mmHg 90%
    03:00 +2°C° 0 mm 2 m/s 770 mmHg 93%
    04:00 +2°C° 0 mm 2 m/s 770 mmHg 93%
    05:00 +2°C° 0 mm 2 m/s 770 mmHg 94%
    06:00 +2°C° 0 mm 2 m/s 770 mmHg 95%
    07:00 +4°C° 0 mm 2 m/s 770 mmHg 89%
    08:00 +5°C° 0 mm 3 m/s 770 mmHg 84%
    09:00 +7°C° 0 mm 3 m/s 770 mmHg 79%
    10:00 +9°C° 0 mm 3 m/s 770 mmHg 74%
    11:00 +10°C° 0 mm 3 m/s 770 mmHg 69%
    12:00 +11°C° 0 mm 3 m/s 770 mmHg 65%
    13:00 +12°C° 0 mm 4 m/s 769 mmHg 65%
    14:00 +12°C° 0 mm 4 m/s 769 mmHg 65%
    15:00 +12°C° 0 mm 4 m/s 769 mmHg 65%
    16:00 +11°C° 0 mm 4 m/s 768 mmHg 69%
    17:00 +10°C° 0 mm 3 m/s 768 mmHg 73%
    18:00 +9°C° 0 mm 3 m/s 768 mmHg 77%
    19:00 +8°C° 0 mm 3 m/s 769 mmHg 79%
    20:00 +5°C° 0 mm 3 m/s 769 mmHg 81%
    21:00 +4°C° 0 mm 3 m/s 769 mmHg 83%
    22:00 +3°C° 0 mm 3 m/s 769 mmHg 86%
    23:00 +3°C° 0 mm 3 m/s 769 mmHg 89%

    27 Martie, Miercuri

    Timp Temperatura Precipitaţii Vânt Presiune Umiditate
    00:00 +4°C° 0 mm 2 m/s 769 mmHg 92%
    01:00 +4°C° 0 mm 2 m/s 769 mmHg 93%
    02:00 +3°C° 0 mm 2 m/s 769 mmHg 93%
    03:00 +3°C° 0 mm 2 m/s 769 mmHg 94%
    04:00 +3°C° 0 mm 2 m/s 769 mmHg 94%
    05:00 +3°C° 0 mm 2 m/s 769 mmHg 94%
    06:00 +3°C° 0 mm 2 m/s 769 mmHg 95%
    07:00 +4°C° 0 mm 3 m/s 770 mmHg 90%
    08:00 +7°C° 0 mm 3 m/s 770 mmHg 85%
    09:00 +8°C° 0 mm 3 m/s 770 mmHg 80%
    10:00 +10°C° 0 mm 3 m/s 770 mmHg 75%
    11:00 +11°C° 0 mm 3 m/s 770 mmHg 70%
    12:00 +12°C° 0 mm 3 m/s 770 mmHg 65%
    13:00 +14°C° 0 mm 2 m/s 770 mmHg 65%
    14:00 +14°C° 0 mm 2 m/s 770 mmHg 65%
    15:00 +14°C° 0 mm 2 m/s 770 mmHg 64%
    16:00 +13°C° 0 mm 2 m/s 770 mmHg 69%
    17:00 +12°C° 0 mm 2 m/s 770 mmHg 73%
    18:00 +10°C° 0 mm 2 m/s 770 mmHg 77%
    19:00 +9°C° 0 mm 2 m/s 770 mmHg 80%
    20:00 +7°C° 0 mm 2 m/s 770 mmHg 84%
    21:00 +6°C° 0 mm 2 m/s 771 mmHg 87%
    22:00 +6°C° 0 mm 2 m/s 771 mmHg 87%
    23:00 +5°C° 0 mm 2 m/s 771 mmHg 87%

    28 Martie, Joi

    Timp Temperatura Precipitaţii Vânt Presiune Umiditate
    00:00 +4°C° 0 mm 2 m/s 771 mmHg 86%
    01:00 +4°C° 0 mm 2 m/s 771 mmHg 87%
    02:00 +4°C° 0 mm 2 m/s 771 mmHg 88%
    03:00 +3°C° 0 mm 2 m/s 771 mmHg 88%
    04:00 +4°C° 0 mm 1 m/s 771 mmHg 89%
    05:00 +4°C° 0 mm 1 m/s 771 mmHg 90%
    06:00 +4°C° 0 mm 1 m/s 771 mmHg 90%
    07:00 +6°C° 0 mm 1 m/s 771 mmHg 86%
    08:00 +7°C° 0 mm 0 m/s 771 mmHg 81%
    09:00 +9°C° 0 mm 0 m/s 771 mmHg 76%
    10:00 +10°C° 0 mm 0 m/s 771 mmHg 71%
    11:00 +13°C° 0 mm 1 m/s 771 mmHg 66%
    12:00 +14°C° 0 mm 1 m/s 771 mmHg 61%
    13:00 +15°C° 0 mm 1 m/s 770 mmHg 59%
    14:00 +15°C° 0 mm 1 m/s 770 mmHg 57%
    15:00 +15°C° 0 mm 1 m/s 769 mmHg 54%
    16:00 +14°C° 0 mm 1 m/s 769 mmHg 59%
    17:00 +13°C° 0 mm 1 m/s 769 mmHg 64%
    18:00 +11°C° 0 mm 0 m/s 768 mmHg 68%
    19:00 +11°C° 0 mm 1 m/s 769 mmHg 70%
    20:00 +10°C° 0 mm 1 m/s 769 mmHg 73%
    21:00 +9°C° 0 mm 1 m/s 769 mmHg 75%
    22:00 +8°C° 0 mm 1 m/s 769 mmHg 76%
    23:00 +8°C° 0 mm 1 m/s 768 mmHg 78%

    29 Martie, Vineri

    Timp Temperatura Precipitaţii Vânt Presiune Umiditate
    00:00 +7°C° 0 mm 2 m/s 768 mmHg 80%
    01:00 +6°C° 0 mm 2 m/s 768 mmHg 83%
    02:00 +6°C° 0 mm 2 m/s 768 mmHg 86%
    03:00 +6°C° 0 mm 2 m/s 768 mmHg 89%
    04:00 +5°C° 0 mm 2 m/s 768 mmHg 90%
    05:00 +5°C° 0 mm 2 m/s 767 mmHg 91%
    06:00 +5°C° 0 mm 2 m/s 767 mmHg 92%
    07:00 +7°C° 0 mm 2 m/s 767 mmHg 87%
    08:00 +9°C° 0 mm 2 m/s 767 mmHg 82%
    09:00 +10°C° 0 mm 2 m/s 767 mmHg 77%
    10:00 +13°C° 0 mm 2 m/s 767 mmHg 70%
    11:00 +13°C° 0 mm 3 m/s 766 mmHg 63%
    12:00 +14°C° 0 mm 3 m/s 766 mmHg 57%
    13:00 +16°C° 0 mm 3 m/s 765 mmHg 55%
    14:00 +16°C° 0 mm 3 m/s 765 mmHg 54%
    15:00 +16°C° 0 mm 3 m/s 764 mmHg 53%
    16:00 +15°C° 0 mm 2 m/s 764 mmHg 58%
    17:00 +14°C° 0 mm 2 m/s 764 mmHg 64%
    18:00 +13°C° 0 mm 2 m/s 763 mmHg 69%
    19:00 +12°C° 0 mm 2 m/s 763 mmHg 74%
    20:00 +10°C° 0 mm 2 m/s 763 mmHg 79%
    21:00 +9°C° 0 mm 3 m/s 763 mmHg 85%
    22:00 +8°C° 0 mm 3 m/s 763 mmHg 87%
    23:00 +8°C° 0 mm 3 m/s 763 mmHg 90%
    Arată mai mult